Regional Weather Roundup
Issued by NWS Little Rock, AR

Home | Current Version | Previous Version | Graphics & Text | Print | Product List | Glossary On
Versions: 1 2 3 4 5 6 7 8 9 10 11 12 13 14 15 16 17 18 19 20 21 22 23 24 25 26 27 28 29 30 31 32 33 34 35 36 37 38 39 40 41 42 43 44 45 46 47 48 49
000
ASUS44 KLZK 212205
RWRLZK

WEATHER ROUNDUP FOR ARKANSAS
NATIONAL WEATHER SERVICE LITTLE ROCK AR
500 PM CDT SUN SEP 21 2014

NOTE: "FAIR" INDICATES FEW OR NO CLOUDS BELOW 12,000 FEET WITH NO
SIGNIFICANT WEATHER AND/OR OBSTRUCTIONS TO VISIBILITY.

ARZ001-003-010-029-212300-
NORTHWEST ARKANSAS

CITY           SKY/WX    TMP DP  RH WIND       PRES   REMARKS
FAYETTEVILLE   SUNNY     79  50  36 N6        30.10F
FORT SMITH     MOSUNNY   85  68  56 NW10      30.04F HX  88
HARRISON       SUNNY     79  49  34 NW7       30.10S
BENTONVILLE    SUNNY     79  48  34 N7        30.13F
ROGERS         SUNNY     77  47  34 N6        30.13S
SILOAM SPGS    SUNNY     79  52  38 N9G16     30.13S
HIGHFILL       SUNNY     78  48  34 N12       30.12S
SPRINGDALE     SUNNY     79  48  34 N9        30.13F
$$

ARZ004-005-016-212300-
NORTH CENTRAL ARKANSAS

CITY           SKY/WX    TMP DP  RH WIND       PRES   REMARKS
BATESVILLE     SUNNY     84  59  42 N9        30.01R
FLIPPIN        SUNNY     82  45  26 NW12      30.07S
MTN HOME       SUNNY     80  46  30 VRB5      30.06S
$$

ARZ040-041-212300-
WEST CENTRAL ARKANSAS

CITY           SKY/WX    TMP DP  RH WIND       PRES   REMARKS
MENA           MOSUNNY   81  70  69 CALM      30.06F
MOUNT IDA      PTSUNNY   82  70  66 VRB5      30.02F HX  86
$$

ARZ009-017-025-026-028-212300-
NORTHEAST ARKANSAS

CITY           SKY/WX    TMP DP  RH WIND       PRES   REMARKS
CORNING          N/A     82  50  32 NW10      30.01S
JONESBORO      SUNNY     85  61  44 N8        29.99R HX  85
NEWPORT        SUNNY     86  64  47 N18       29.99S HX  87
WALNUT RIDGE   SUNNY     82  52  34 NW14      30.00R
BLYTHEVILLE    MOSUNNY   83  67  58 N7        29.98R HX  85
$$

ARZ022-023-033-042-044-212300-
CENTRAL ARKANSAS

CITY           SKY/WX    TMP DP  RH WIND       PRES   REMARKS
LITTLE ROCK    PTSUNNY   82  69  64 NW15      30.01S HX  85
N LITTLE ROCK  PTSUNNY   79  73  81 W5        30.01S
JACKSONVILLE   MOSUNNY   84  71  64 W6        30.00S HX  89
SEARCY         MOSUNNY   87  67  51 N8        30.00S HX  90
HOT SPRINGS    PTSUNNY   83  69  62 N6        30.01F HX  86
RUSSELLVILLE   MOSUNNY   83  72  69 VRB3      30.02F HX  88
CLINTON        FAIR      84  68  58 NW9       30.02S HX  87
$$

ARZ036-212300-
EAST ARKANSAS

CITY           SKY/WX    TMP DP  RH WIND       PRES   REMARKS
WEST MEMPHIS   MOSUNNY   87  68  52 NW9       29.96R HX  90
$$

ARZ050-053-066-070-073-212300-
SOUTHWEST ARKANSAS

CITY           SKY/WX    TMP DP  RH WIND       PRES   REMARKS
ARKADELPHIA    FAIR      89  71  55 NW7       29.99F HX  95
CAMDEN         MOSUNNY   93  68  43 N8        29.99S HX  97
TEXARKANA      MOSUNNY   91  69  48 VRB5      30.00F HX  96
EL DORADO      MOSUNNY   88  67  49 NW6       29.99F HX  91
DE QUEEN       MOSUNNY   88  70  55 N3        29.99F HX  93
$$

ARZ056-057-069-212300-
SOUTHEAST ARKANSAS

CITY           SKY/WX    TMP DP  RH WIND       PRES   REMARKS
PINE BLUFF     CLOUDY    85  68  56 NW12      29.98F HX  88
STUTTGART      PTSUNNY   84  72  65 NW12      29.99S HX  89
MONTICELLO     PTSUNNY   88  68  51 NW7       29.98S HX  91

$$





USA.gov is the U.S. government's official web portal to all federal, state and local government web resources and services.